Location: Newark
(53.3333°N, 83.7500°E)
Time: 19:46:56
(UTC+00:00)

ISS - Pass Details

Date: 30 October 2019
Orbit: 412 x 421 km, 51.6° (Epoch: 14 November)

Event Time Altitude Azimuth Distance (km) Brightness Sun altitude
Exits shadow 00:05:56 12° 239° (WSW) 1,381 -1.6 -11.3°
Maximum altitude 00:08:54 50° 165° (SSE) 547 -3.0 -10.9°
Drops below altitude 10° 00:12:13 10° 89° (E) 1,517 0.6 -10.4°
Sets 00:14:19 0° 84° (E) 2,371 1.8 -10.1°
